Home   Weather   Kortrijk   Past weeks

Flag for Belgium Past Weather in Kortrijk, Belgium — Yesterday and Last 2 Weeks

Now
37 °F

Fog.


Feels Like: 35 °F
Forecast: 25 / 33 °F
Wind: 3 mph from North

Location: Lille Airport

Current Time: Jan 16, 2017 at 4:27:58 pm

Latest Report: Jan 16, 2017 at 3:30 pm


Visibility: 3 mi

Pressure: 30.33 "Hg

Humidity: 93%

Dew Point: 36 °F

Location of KortrijkLocation

Past Weather in Kortrijk — Graph

°F

Kortrijk Temperature Yesterday

Maximum temperature yesterday: 37 °F (at 12:30 pm)
Minimum temperature yesterday: 32 °F (at 1:30 am)
Average temperature yesterday: 35 °F

High & Low Weather Summary for the Past Weeks

 TemperatureHumidityPressure
High54 °F (Jan 11, 1:30 pm)100% (Jan 1, 3:00 pm)30.72 "Hg (Jan 1, 3:00 pm)
Low23 °F (Jan 6, 9:00 am)62% (Jan 11, 6:30 pm)28.94 "Hg (Jan 12, 9:30 pm)
Average37 °F90%30.16 "Hg
* Reported Jan 1 3:00 pm — Jan 16 3:30 pm, Kortrijk, Weather by CustomWeather, © 2017

Note: Actual official high and low records may vary slightly from our data, if they occured in-between our weather recording intervals... More about our weather records

Advertising

Kortrijk Weather History for the Previous 24 Hours

Scroll right to see more
 ConditionsComfort  
Time TempWeatherWind HumidityBarometerVisibility
3:30 pm
Mon, Jan 16
37 °FFog.3 mph93%30.33 "Hg3 mi
3:00 pm37 °FFog.3 mph93%30.33 "Hg3 mi
2:30 pm37 °FFog.5 mph93%30.33 "Hg3 mi
2:00 pm36 °FFog.3 mph100%30.33 "Hg3 mi
1:30 pm36 °FFog.2 mph100%30.33 "Hg3 mi
1:00 pm36 °FFog.5 mph100%30.33 "Hg2 mi
12:30 pm34 °FFog.6 mph100%30.33 "Hg2 mi
12:00 pm34 °FFog.5 mph100%30.33 "Hg2 mi
11:30 am34 °FFog.3 mph100%30.33 "Hg1 mi
11:00 am34 °FFog.3 mph100%30.33 "Hg1 mi
10:30 am32 °FFog.2 mph100%30.30 "Hg1 mi
10:00 am32 °FFog.3 mph100%30.30 "Hg1 mi
9:30 am32 °FFog.3 mph100%30.30 "Hg0 mi
9:00 am32 °FIce fog.6 mph100%30.30 "Hg0 mi
8:30 am32 °FIce fog.5 mph100%30.30 "Hg1 mi
8:00 am32 °FIce fog.2 mph100%30.27 "Hg1 mi
7:30 am32 °FIce fog.2 mph100%30.27 "Hg1 mi
7:00 am32 °FIce fog.2 mph100%30.27 "Hg1 mi
6:30 am30 °FIce fog.No wind100%30.27 "Hg1 mi
6:00 am32 °FIce fog.No wind100%30.27 "Hg1 mi
5:30 am30 °FIce fog.No wind100%30.27 "Hg0 mi
5:00 am30 °FIce fog.2 mph100%30.27 "Hg0 mi
4:30 am30 °FIce fog.No wind100%30.27 "Hg0 mi
4:00 am28 °FIce fog.No wind100%30.24 "Hg1 mi
3:30 am28 °FIce fog.No wind100%30.24 "Hg0 mi
3:00 am30 °FIce fog.2 mph100%30.24 "Hg0 mi
2:30 am30 °FIce fog.3 mph100%30.24 "Hg0 mi
2:00 am30 °FIce fog.3 mph100%30.24 "Hg1 mi
1:00 am32 °FIce fog.3 mph100%30.21 "Hg2 mi
12:30 am34 °FFog.3 mph93%30.21 "Hg2 mi
12:00 am34 °FFog.No wind93%30.21 "Hg2 mi
11:30 pm
Sun, Jan 15
34 °FFog.No wind100%30.21 "Hg3 mi
11:00 pm34 °FFog.3 mph100%30.21 "Hg3 mi
10:30 pm34 °FFog.5 mph100%30.21 "Hg3 mi
10:00 pm34 °FLow clouds.6 mph100%30.18 "Hg4 mi
9:30 pm34 °FMostly cloudy.5 mph100%30.18 "Hg4 mi
9:00 pm34 °FLow clouds.3 mph100%30.18 "Hg5 mi
8:30 pm36 °FLow clouds.5 mph93%30.18 "Hg6 mi
8:00 pm36 °FLow clouds.5 mph93%30.18 "HgN/A
7:30 pm36 °FDrizzle. Low clouds.6 mph93%30.18 "Hg4 mi
7:00 pm36 °FLight rain. Low clouds.6 mph93%30.18 "Hg6 mi
6:30 pm36 °FLight rain. Passing clouds.5 mph93%30.18 "HgN/A
6:00 pm36 °FLight rain. Passing clouds.6 mph93%30.15 "HgN/A
5:30 pm36 °FLight rain. Passing clouds.6 mph93%30.15 "HgN/A
5:00 pm36 °FLight rain. More clouds than sun.6 mph93%30.15 "HgN/A
4:30 pm36 °FLight rain. Broken clouds.6 mph93%30.15 "HgN/A
4:00 pm36 °FLight rain. Cloudy.5 mph93%30.15 "HgN/A
Weather by CustomWeather, © 2017

See weather overviewHow to use our weather pages